Change the Weather History Date:

Saturday, March 9, 2013

  Actual Average Record
Temperature  
Mean Temperature 32 °F -  
Max Temperature 35 °F 49 °F 62 °F (2014)
Min Temperature 30 °F 34 °F 24 °F (2005)
Degree Days  
Heating Degree Days 32    
Moisture  
Dew Point 27 °F    
Average Humidity 79    
Maximum Humidity 100    
Minimum Humidity 60    
Precipitation  
Precipitation 0.04 in - - ()
Sea Level Pressure  
Sea Level Pressure 29.74 in    
Wind  
Wind Speed 12 mph ()    
Max Wind Speed 17 mph    
Max Gust Speed -    
Visibility 6.2 miles    
Events Snow    
Averages and records for this station are not official NWS values.
T = Trace of Precipitation, MM = Missing Value Source: Averaged Metar Reports

Daily Weather History Graph

Daily Weather History Graph

Search for Another Location

Airport or City:

Trip Planner

Search our weather history database for the weather conditions in past years. The results will help you decide how hot, cold, wet, or windy it might be!

Date:

Astronomy

Mar. 09, 2013 Rise Set
Actual Time 6:34 AM CET 6:00 PM CET
Civil Twilight 6:00 AM CET 6:34 PM CET
Nautical Twilight 5:21 AM CET 7:14 PM CET
Astronomical Twilight 4:40 AM CET 7:54 PM CET
Moon 5:04 AM CET (3/9) 3:30 PM CET (3/9)
Length of Visible Light 12h 33m
Length of Day
11h 25m
Waning Crescent, 7% of the Moon is Illuminated
Mar 9
Waning Crescent
Mar 11
New
Mar 19
First Quarter
Mar 27
Full
Apr 3
Last Quarter

Hourly Weather History & Observations

Time (CET) Temp. Windchill Dew Point Humidity Pressure Visibility Wind Dir Wind Speed Gust Speed Precip Events Conditions
12:00 AM 33 °F - 27 °F 70% 29.81 in 14 mi East 11.2 mph - -   Mostly Cloudy
12:20 AM 32.0 °F 21.2 °F 26.6 °F 80% 29.80 in 6.2 mi East 16.1 mph - N/A   Mostly Cloudy
12:50 AM 32.0 °F 21.6 °F 26.6 °F 80% 29.80 in 6.2 mi ENE 15.0 mph - N/A   Mostly Cloudy
1:00 AM 33 °F - 27 °F 70% 29.80 in 14 mi East 11.2 mph - -   Mostly Cloudy
1:20 AM 32.0 °F 22.1 °F 26.6 °F 80% 29.80 in 6.2 mi East 13.8 mph - N/A   Mostly Cloudy
1:50 AM 32.0 °F 22.1 °F 26.6 °F 80% 29.80 in 6.2 mi East 13.8 mph - N/A   Mostly Cloudy
2:00 AM 33 °F - 27 °F 69% 29.81 in 14 mi East 11.2 mph - -   Mostly Cloudy
2:20 AM 32.0 °F 22.5 °F 26.6 °F 80% 29.80 in 6.2 mi East 12.7 mph - N/A   Mostly Cloudy
2:50 AM 32.0 °F 22.1 °F 26.6 °F 80% 29.77 in 6.2 mi ENE 13.8 mph - N/A   Mostly Cloudy
3:00 AM 32 °F - 27 °F 73% 29.79 in 14 mi East 11.2 mph - -   Mostly Cloudy
3:20 AM 32.0 °F 21.6 °F 26.6 °F 80% 29.77 in 6.2 mi ENE 15.0 mph - N/A   Mostly Cloudy
3:50 AM 32.0 °F 22.1 °F 26.6 °F 80% 29.77 in 6.2 mi East 13.8 mph - N/A   Mostly Cloudy
4:00 AM 32 °F - 26 °F 71% 29.78 in 16 mi East 8.9 mph - -   Mostly Cloudy
4:20 AM 32.0 °F 22.5 °F 26.6 °F 80% 29.77 in 6.2 mi ENE 12.7 mph - N/A   Mostly Cloudy
4:50 AM 32.0 °F 21.6 °F 26.6 °F 80% 29.77 in 6.2 mi ENE 15.0 mph - N/A   Mostly Cloudy
5:00 AM 32 °F - 26 °F 70% 29.77 in 16 mi East 11.2 mph - -   Mostly Cloudy
5:20 AM 32.0 °F 21.6 °F 26.6 °F 80% 29.77 in 6.2 mi ENE 15.0 mph - N/A   Mostly Cloudy
5:50 AM 32.0 °F 22.1 °F 24.8 °F 75% 29.77 in 6.2 mi ENE 13.8 mph - N/A   Mostly Cloudy
6:00 AM 31 °F - 26 °F 73% 29.77 in 16 mi East 11.2 mph - -   Mostly Cloudy
6:20 AM 32.0 °F 22.5 °F 24.8 °F 75% 29.74 in 6.2 mi ENE 12.7 mph - N/A   Mostly Cloudy
6:50 AM 32.0 °F 22.5 °F 26.6 °F 80% 29.74 in 6.2 mi East 12.7 mph - N/A   Mostly Cloudy
7:00 AM 31 °F - 26 °F 73% 29.77 in 9 mi East 11.2 mph - -   Overcast
7:20 AM 32.0 °F 22.1 °F 26.6 °F 80% 29.77 in 6.2 mi ENE 13.8 mph - N/A   Mostly Cloudy
7:50 AM 32.0 °F 22.5 °F 26.6 °F 80% 29.77 in 6.2 mi ENE 12.7 mph - N/A   Mostly Cloudy
8:00 AM 31 °F - 26 °F 74% 29.78 in 7 mi East 8.9 mph - -   Overcast
8:20 AM 32.0 °F 23.6 °F 26.6 °F 80% 29.77 in 6.2 mi ENE 10.4 mph - N/A   Mostly Cloudy
8:50 AM 32.0 °F 21.2 °F 26.6 °F 80% 29.77 in 6.2 mi East 16.1 mph - N/A   Mostly Cloudy
9:00 AM 32 °F - 26 °F 71% 29.78 in 7 mi East 11.2 mph - -   Overcast
9:20 AM 32.0 °F 21.2 °F 26.6 °F 80% 29.74 in 6.2 mi East 16.1 mph - N/A   Mostly Cloudy
9:50 AM 32.0 °F 21.6 °F 26.6 °F 80% 29.74 in 6.2 mi East 15.0 mph - N/A   Mostly Cloudy
10:00 AM 33 °F - 26 °F 67% 29.77 in 8 mi East 13.4 mph - -   Mostly Cloudy
10:20 AM 32.0 °F 21.2 °F 26.6 °F 80% 29.77 in 6.2 mi East 16.1 mph - N/A   Mostly Cloudy
10:50 AM 33.8 °F 23.5 °F 26.6 °F 75% 29.74 in 6.2 mi East 16.1 mph - N/A   Mostly Cloudy
11:00 AM 33 °F - 26 °F 68% 29.76 in 9 mi East 11.2 mph - -   Mostly Cloudy
11:20 AM 33.8 °F 24.3 °F 26.6 °F 75% 29.74 in 6.2 mi East 13.8 mph - N/A   Mostly Cloudy
11:50 AM 33.8 °F 23.5 °F 26.6 °F 75% 29.74 in 6.2 mi East 16.1 mph - N/A   Mostly Cloudy
12:00 PM 34 °F - 26 °F 64% 29.76 in 9 mi East 11.2 mph - -   Mostly Cloudy
12:20 PM 33.8 °F 23.9 °F 26.6 °F 75% 29.74 in 6.2 mi East 15.0 mph - N/A   Mostly Cloudy
12:50 PM 35.6 °F 26.2 °F 26.6 °F 70% 29.74 in 6.2 mi East 15.0 mph - N/A   Mostly Cloudy
1:20 PM 35.6 °F 26.2 °F 26.6 °F 70% 29.71 in 6.2 mi ENE 15.0 mph - N/A   Mostly Cloudy
1:50 PM 35.6 °F 26.6 °F 26.6 °F 70% 29.71 in 6.2 mi East 13.8 mph - N/A   Mostly Cloudy
2:00 PM 35 °F - 26 °F 61% 29.73 in 9 mi East 11.2 mph - -   Overcast
2:20 PM 35.6 °F 25.9 °F 26.6 °F 70% 29.71 in 6.2 mi East 16.1 mph - N/A   Mostly Cloudy
2:50 PM 35.6 °F 26.6 °F 26.6 °F 70% 29.71 in 6.2 mi East 13.8 mph - N/A   Mostly Cloudy
3:00 PM 36 °F - 27 °F 60% 29.72 in 9 mi ESE 11.2 mph - -   Overcast
3:20 PM 35.6 °F 25.5 °F 26.6 °F 70% 29.71 in 6.2 mi ENE 17.3 mph - N/A   Mostly Cloudy
3:50 PM 35.6 °F 26.6 °F 26.6 °F 70% 29.71 in 6.2 mi East 13.8 mph - N/A   Mostly Cloudy
4:00 PM 35 °F - 27 °F 62% 29.71 in 9 mi East 13.4 mph - -   Overcast
4:20 PM 33.8 °F 23.9 °F 26.6 °F 75% 29.68 in 5.0 mi ENE 15.0 mph - N/A Snow Light Snow
4:50 PM 33.8 °F 24.3 °F 28.4 °F 81% 29.71 in 3.1 mi East 13.8 mph - N/A Snow Light Snow
5:00 PM 34 °F - 28 °F 69% 29.71 in 3 mi East 8.9 mph - - Snow Light Snow
5:20 PM 33.8 °F 24.3 °F 28.4 °F 81% 29.68 in - East 13.8 mph - N/A Snow Light Snow
5:50 PM 32.0 °F 23.0 °F 30.2 °F 93% 29.71 in 1.6 mi ENE 11.5 mph - N/A Snow Light Snow
6:00 PM 32 °F - 30 °F 87% 29.71 in 2 mi East 6.7 mph - - Snow Light Snow
6:20 PM 32.0 °F 22.5 °F 30.2 °F 93% 29.71 in - ENE 12.7 mph - N/A Snow Light Snow
6:50 PM 32.0 °F 22.1 °F 30.2 °F 93% 29.71 in 1.6 mi East 13.8 mph - N/A Snow Snow
7:00 PM 31 °F - 30 °F 93% 29.71 in 2 mi East 8.9 mph - - Snow Snow
7:20 PM 30.2 °F 19.3 °F 30.2 °F 100% 29.68 in 1.6 mi East 15.0 mph - N/A Snow Snow
7:50 PM 30.2 °F 20.8 °F 30.2 °F 100% 29.68 in 2.2 mi East 11.5 mph - N/A Snow Light Snow
8:00 PM 31 °F - 29 °F 92% 29.71 in 2 mi East 11.2 mph - - Snow Light Snow
8:20 PM 30.2 °F 19.8 °F 28.4 °F 93% 29.68 in 2.5 mi East 13.8 mph - N/A Snow Light Snow
8:50 PM 30.2 °F 20.2 °F 28.4 °F 93% 29.68 in 2.2 mi East 12.7 mph - N/A Snow Light Snow
9:00 PM 31 °F - 29 °F 90% 29.70 in 2 mi East 8.9 mph - - Snow Light Snow
9:20 PM 30.2 °F 20.2 °F 28.4 °F 93% 29.68 in 2.5 mi East 12.7 mph - N/A Snow Light Snow Grains
9:50 PM 30.2 °F 19.8 °F 28.4 °F 93% 29.68 in 2.2 mi East 13.8 mph - N/A Snow Light Snow
10:00 PM 31 °F - 29 °F 87% 29.68 in 2 mi East 11.2 mph - - Snow Light Snow
10:20 PM 30.2 °F 20.2 °F 28.4 °F 93% 29.65 in 2.2 mi East 12.7 mph - N/A Snow Light Snow
10:50 PM 30.2 °F 20.2 °F 28.4 °F 93% 29.65 in 2.2 mi East 12.7 mph - N/A Snow Light Snow Grains
11:00 PM 31 °F - 28 °F 86% 29.67 in 2 mi East 8.9 mph - - Snow Snow Grains
11:20 PM 30.2 °F 19.8 °F 28.4 °F 93% 29.65 in 2.2 mi East 13.8 mph - N/A Snow Light Snow Grains
11:50 PM 30.2 °F 20.2 °F 28.4 °F 93% 29.65 in 2.2 mi East 12.7 mph - N/A Snow Light Snow